135  
ASUS43 KFGF 180131  
RWRFGF  
PRAIRIE TO PINES WEATHER ROUNDUP  
NATIONAL WEATHER SERVICE EASTERN NORTH DAKOTA/GRAND FORKS ND  
800 PM CDT SAT APR 17 2021  
 
**SATELLITE DATA USED TO AUGMENT SKY COVER AT AUTOMATED STATIONS**  
***** WEATHER ACROSS EASTERN NORTH DAKOTA *****  
 
CITY SKY/WX TMP DP RH WIND PRES REMARKS
 
GRAND FORKS MOCLDY 51 27 39 NE6 29.98F  
GRAND FRKS AFB PTCLDY 52 27 37 E5 29.98F  
GRAND FRKS NWS N/A 50 31 49 N1 29.93F  
DEVILS LAKE FAIR 52 30 43 SW8 29.98F  
FARGO FAIR 52 29 41 NW7 29.99F  
WAHPETON ARPT N/A N/A N/A N/A MISG N/A  

 
 
***** WEATHER ACROSS CENTRAL AND WESTERN NORTH DAKOTA *****  
 
CITY SKY/WX TMP DP RH WIND PRES REMARKS
 
BISMARCK FAIR 56 20 24 N10 30.06F  
MINOT FAIR 57 27 31 W9 30.00F  
JAMESTOWN FAIR 52 26 36 N6 30.00F  
MINOT AFB FAIR 54 31 42 W8 29.99F  
GARRISON N/A 56 25 30 W9 30.03F  
WILLISTON NOT AVBL  
DICKINSON FAIR 54 19 25 N9 30.05F  
HETTINGER FAIR 51 21 30 NW8 30.08F  

 
 
***** OTHER AIRPORT OBSERVATIONS IN OUR AREA *****  
 
CITY SKY/WX TMP DP RH WIND PRES REMARKS
 
WALHALLA FAIR 52 30 43 E5 29.96F  
GRAFTON AIRPOR NOT AVBL  
VALLEY CITY AR FAIR 48 25 40 NW7 30.02S  
CANDO FAIR 48 30 49 W5 29.98F  
CAVALIER APRT FAIR 52 28 40 E6 29.96F  
GWINNER CLEAR 50 27 40 NW8 30.01F  
SHEYENNE NWR N/A 55 26 32 NW5 29.95S  
ROLLA FAIR 52 27 37 W7 29.96F  
***** THE ABOVE OBSERVATIONS ARE NON NWS ARE NOT QUALITY  
CONTROLLED AND MAY MIS-REPORT RAIN FOR SNOW...  

 
 
***** WEATHER ACROSS NORTHERN MINNESOTA *****  
 
CITY SKY/WX TMP DP RH WIND PRES REMARKS
 
FLAG ISLAND FAIR 45 30 57 CALM 29.94S  
WARROAD FAIR 48 30 49 W5 29.95S  
ROSEAU FAIR 48 N/A N/A W7 29.96S  
HALLOCK FAIR 50 27 40 N5 29.96F  
THF RVR FALLS FAIR 50 28 42 NW14 29.99S  
BAUDETTE FAIR 50 25 37 W5 29.94F  
WASKISH FAIR 45 34 65 W6 29.95F  
CROOKSTON FAIR 48 28 46 N5 29.99S  
STEPHEN NDAWN N/A 46 27 46 VRB5 N/A  
GREENBUSH NDAW N/A 45 32 61 VRB3 N/A  

 
***** WEATHER ACROSS CENTRAL AND WEST MINNESOTA *****  
 
CITY SKY/WX TMP DP RH WIND PRES REMARKS
 
FOSSTON FAIR 46 27 46 CALM 29.98F  
BEMIDJI FAIR 46 23 41 W6 29.97F  
PARK RAPIDS FAIR 47 22 37 W8 29.98S  
ELBOW LAKE FAIR 46 28 48 N5 30.01S  
WADENA N/A 48 27 43 NW3 30.00S  
DETROIT LAKES NOT AVBL  
MOORHEAD FAIR 54 28 37 CALM 30.00S  
FERGUS FALLS FAIR 50 28 43 CALM 29.97F  
MORRIS MN FAIR 48 21 34 NW3 30.02F  
STAPLES FAIR 48 21 34 W7 29.99S  

 
***** WEATHER ELSEWHERE ACROSS MINNESOTA *****  
 
CITY SKY/WX TMP DP RH WIND PRES REMARKS
 
DULUTH FAIR 50 20 30 NW8 29.93S  
INTRNTL FALLS FAIR 48 23 37 W5 29.93F  
ELY FAIR 46 16 29 CALM 29.93S  
CLOQUET FAIR 45 19 36 W3 29.94R  
WHEATON NOT AVBL  
BRAINERD FAIR 53 18 25 N5 29.97F  
HIBBING FAIR 45 22 40 NW7 29.94S  
ALEXANDRIA FAIR 48 23 37 NW8 30.01F  
SAINT CLOUD CLOUDY 52 24 33 W8 29.98F  
MINNEAPOLIS MOCLDY 54 25 32 NW13 29.98F  

 
 
***** WEATHER ACROSS SOUTH DAKOTA *****  
 
CITY SKY/WX TMP DP RH WIND PRES REMARKS
 
SIOUX FALLS FAIR 51 23 33 N10 30.05S  
BROOKINGS MOCLDY 48 25 40 NW8 30.05S  
WATERTOWN FAIR 47 28 47 NW6 30.04F  
HURON MOCLDY 50 28 42 CALM 30.07F  
SISSETON N/A 53 28 38 NW8 30.01F  
ABERDEEN MOCLDY 53 26 35 NW5 30.05F  
MITCHELL MOCLDY 50 25 37 N7 30.09F  
PIERRE FAIR 50 24 36 NW5 30.09F  
MOBRIDGE FAIR 56 23 27 N3 30.05F  
RAPID CITY FAIR 49 23 36 N9 30.10F  

 
 
***** SOME WEATHER IN NEARBY STATES *****  
 
CITY SKY/WX TMP DP RH WIND PRES REMARKS
 
GLASGOW MT FAIR 64 22 20 W7 30.05F  
GREAT FALLS MT FAIR 65 14 14 N3 30.12F  
CHEYENNE WY FAIR 38 20 48 NW12G21 30.16F  
SCOTTSBLUFF NE FAIR 47 28 47 NE7 30.14S  
OMAHA NE MOCLDY 51 37 58 N12 30.06S  
DES MOINES IA CLOUDY 57 29 34 NW7 29.99S  
DAVENPORT IA FAIR 53 33 46 N7 29.96R  
CHICAGO IL FAIR 47 27 45 NE7 29.95R  
EAU CLAIRE WI CLOUDY 54 24 31 NW7 29.95R  
LA CROSSE WI CLOUDY 54 31 41 NW6 29.94S  

 
 
***** SOME NATIONAL WEATHER *****  
 
CITY SKY/WX TMP DP RH WIND PRES REMARKS
 
LA GUARDIA NY CLOUDY 53 34 48 N8 29.81R  
RALEIGH NC MOCLDY 58 47 66 CALM 29.85R  
ATLANTA GA MOCLDY 65 45 48 NW7 29.86R  
NEW ORLEANS LA CLOUDY 65 59 81 N7 29.89F  
OKLAHOMA CITY CLOUDY 50 37 61 N10 30.12S  
ALBUQUERQUE NM CLOUDY 50 24 36 E13 30.07R  
SALT LAKE CITY FAIR 53 26 35 W16 30.17S  
LOS ANGELES CA FAIR 61 52 72 SW12 29.92S  
BOISE ID FAIR 66 18 15 VRB5 30.20F  
SEATTLE WA FAIR 80 33 18 N3 30.15F  

 
 
*** WEATHER ACROSS MANITOBA...SASKATCHEWAN AND ONTARIO ***  
***ONTARIO***  
 
CITY SKY/WX TMP DP RH WIND PRES REMARKS
 
GERALDTON PTCLDY 41 19 42 N3 29.89R  
THUNDER BAY PTCLDY 41 19 42 CALM 29.92S  
SIOUX LOOKOUT PTCLDY 46 19 34 W6 29.89F  
TORONTO PTCLDY 48 37 66 NW7 29.83R  
BIG TROUT LK CLOUDY 37 28 70 N6 29.85S  
PICKLE LAKE MOCLDY 46 19 34 NW6 29.84S  
DRYDEN PTCLDY 48 23 37 W6 29.90S  
KENORA PTCLDY 50 23 34 NW5 29.92F  

 
*** MANITOBA***  
 
CITY SKY/WX TMP DP RH WIND PRES REMARKS
 
BRANDON MOCLDY 54 28 37 N6 29.94F  
DAUPHIN MOCLDY 48 30 49 SE7 29.93F  
ISLAND LAKE NOT AVBL  
PILOT MOUND N/A 50 32 50 NE8 N/A  
THE PAS CLOUDY 39 27 60 N10G21 30.06R  
THOMPSON FLURRIES 28 19 69 N14 30.11S WCI 17  
WINNIPEG MOCLDY 50 28 43 NW7 29.95F  
LYNN LAKE FLURRIES 27 18 69 N10G17 30.18S WCI 17  
CHURCHILL CLOUDY 16 14 93 N21 30.17R WCI -2  
GILLAM LGT SNOW 23 19 86 N15 30.11R WCI 10  

 
***SASKATCHEWAN***  
 
CITY SKY/WX TMP DP RH WIND PRES REMARKS
 
ESTEVAN MOCLDY 55 32 41 W8 29.98F  
KINDERSLEY MOSUNNY 59 21 23 N14G23 30.07R  
LLOYDMINSTER PTSUNNY 55 25 30 N21G28 30.13R  
PRINCE ALBERT MOCLDY 54 19 26 N18G30 30.08R  
REGINA PTCLDY 57 34 41 NE7 29.97F  
YORKTON PTCLDY 52 37 58 W7 29.93F  
N. BATTLEFORD SUNNY 57 23 26 N15G22 30.10R  
LA RONGE MOCLDY 39 25 56 N12G18 30.20R  
SASKATOON PTCLDY 57 21 24 N21 30.03R  
SWIFT CURRENT PTCLDY 61 25 25 N22G29 30.00F  

 
NOTE: THESE ARE AUTOMATED STATIONS WITH LIMITED QUALITY CONTROL  
"FAIR" INDICATES FEW OR NO CLOUDS BELOW 12,000 FEET WITH NO  
SIGNIFICANT WEATHER AND/OR S TO VISIBILITY
.  
SKY/WX - SKY CONDITION AND SIGNIFICANT WEATHER.  
TMP - AIR TEMPERATURE. DP - DEWPOINT TEMPERATURE.  
RH - RELATIVE HUMIDITY. PRES - PRESSURE.  
HX - HEAT INDEX. WCI - WIND CHILL INDEX.  
$  
 
 
CLICK HERE TO GO TO PREVIOUS BULLETINS.

The Nexlab ND Page
The Nexlab MN Page Main Text Page